LogoCoinalyze
    Ad-Free Version Inicio Mercados Tasas de Financiamiento
    Datos de futuros
    • Datos agregados (Monedas)
    • Gráficos individuales
    • Gráficos globales
    Alertas
    TA
    Bitcoin Ethereum BNB Ripple Tron ZCash Dogecoin Monero Chainlink UNUS SED LEO Cardano Stellar Lumens Bitcoin Cash Litecoin Hedera Cronos Polkadot Ethereum Classic Dash Algorand Cosmos Quant VeChain Bitcoin SV Decred BitTorrent Terra Tezos The Graph Iota THETA NEO Decentraland MultiversX Chiliz Horizen Golem Basic Attention Token Qtum DigiByte 0x Beam RIF Token FTX Token FUNToken Holo aelf Zilliqa Ontology Enjin Coin Nano Ravencoin Verge Mask Network Siacoin WINk Status Waves IoTeX iExec RLC Power Ledger Steem Kyber Network Crystal Ark Lisk Ardor WOO Network IOST WAX Icon Storj Wanchain Loopring Bitcoin Diamond AdEx Bitcoin Gold Augur OmiseGO NEM BitShares MonaCoin Ren Komodo V Systems Nuls Mithril SOLVE EOS Aion Maker HedgeTrade Nebulas Bread Bytom Waltonchain Polygon Metaverse ETP TomoChain GXChain Fetch.ai MaidSafeCoin Fantom QASH
    Ordenar por:
    Más
    • API
    • Patrones de velas
    • Donar
    • Contacto
    • Mapa del Sitio
    • Privacy Policy
    • Disclaimer
    • Theme:
    Español
    • English
    • Français
    • Русский
    • Deutsch
    • Türkçe
    • Nederlands
    • Português (BR)
    • 한국어
    • 简体中文
    • 日本語
     
    Iniciar sesión / Registrar
    Markets/ Pepe/ PEPE a EUR/ PEPEEUR Binance
    Trades
    WL
    Chat
    Estad.
    Noticias
    ⦷
    AAA
    0.00000304 144909223.00000000 11:19:44
    0.00000304 184038145.00000000 11:19:44
    0.00000304 28323348.00000000 11:15:29
    0.00000304 7315267.00000000 11:03:37
    0.00000304 305633837.00000000 10:20:21
    0.00000304 59917226.00000000 10:20:21
    0.00000304 1671801.00000000 09:48:31
    0.00000304 56167048.00000000 09:40:01
    0.00000304 27843700.00000000 09:28:30
    0.00000304 27843700.00000000 09:28:30
    0.00000304 844784.00000000 09:20:15
    0.00000303 616292.00000000 08:55:08
    0.00000303 27843700.00000000 08:52:20
    0.00000303 28446600.00000000 08:23:08
    0.00000303 27843700.00000000 08:21:14
    0.00000303 3277056.00000000 08:07:08
    0.00000303 126453600.00000000 08:06:34
    0.00000303 27843700.00000000 07:55:26
    0.00000303 37182313.00000000 07:55:26
    0.00000303 94219938.00000000 07:55:26
    0.00000304 46.00000000 07:48:15
    0.00000304 126448400.00000000 07:48:15
    0.00000304 133828230.00000000 07:48:15
    0.00000305 17880634.00000000 07:31:39
    0.00000304 62650968.00000000 07:31:39
    0.00000304 41368973.00000000 07:31:06
    0.00000303 27843700.00000000 07:25:53
    0.00000303 27843700.00000000 07:15:29
    0.00000303 27843700.00000000 07:15:29
    0.00000303 51988764.00000000 07:15:29
    0.00000305 26811531.00000000 07:14:12
    0.00000304 8969967.00000000 07:14:12
    0.00000303 80847610.00000000 07:14:12
    0.00000304 18873733.00000000 07:12:57
    0.00000303 53784802.00000000 07:12:57
    0.00000302 1085868.00000000 07:12:25
    0.00000303 46910101.00000000 07:12:16
    0.00000302 401705.00000000 07:12:00
    0.00000302 807941.00000000 07:11:25
    0.00000302 797690.00000000 07:11:10
    0.00000302 876211.00000000 07:10:25
    0.00000302 535866.00000000 07:10:15
    0.00000302 446018.00000000 07:09:55
    0.00000302 504307.00000000 07:09:25
    0.00000302 876823.00000000 07:08:55
    0.00000302 711830.00000000 07:08:25
    0.00000302 619373.00000000 07:08:00
    0.00000302 768813.00000000 07:07:25
    0.00000302 584699.00000000 07:06:50
    0.00000302 477146.00000000 07:06:25
    0.00000302 577350.00000000 07:06:05
    0.00000302 1028772.00000000 07:05:25
    0.00000302 511575.00000000 07:05:05
    0.00000302 807956.00000000 07:04:25
    0.00000302 790883.00000000 07:03:50
    0.00000302 511461.00000000 07:03:25
    0.00000302 913053.00000000 07:02:55
    0.00000302 595496.00000000 07:02:25
    0.00000303 1098905.00000000 07:01:55
    0.00000302 998708.00000000 07:01:25
    0.00000303 42425156.00000000 07:01:03
    0.00000302 619036.00000000 07:01:00
    0.00000302 750611.00000000 07:00:25
    0.00000302 527353.00000000 06:59:45
    0.00000302 442675.00000000 06:59:25
    0.00000302 518593.00000000 06:59:05
    0.00000302 743122.00000000 06:58:25
    0.00000302 773932.00000000 06:58:00
    0.00000302 738557.00000000 06:57:25
    0.00000302 482496.00000000 06:57:10
    0.00000302 923671.00000000 06:56:25
    0.00000302 660625.00000000 06:55:55
    0.00000302 750966.00000000 06:55:25
    0.00000302 832421.00000000 06:55:05
    0.00000302 995221.00000000 06:54:25
    0.00000302 558349.00000000 06:54:05
    0.00000302 1179112.00000000 06:53:25
    0.00000303 29970675.00000000 06:53:15
    0.00000302 865833.00000000 06:52:50
    0.00000302 653929.00000000 06:52:25
    0.00000302 539112.00000000 06:52:05
    0.00000302 28522939.00000000 06:51:37
    0.00000301 853228.00000000 06:51:25
    0.00000302 572645.00000000 06:51:00
    0.00000302 779022.00000000 06:50:25
    0.00000302 606286.00000000 06:49:55
    0.00000302 722236.00000000 06:49:25
    0.00000302 735921.00000000 06:48:55
    0.00000302 553492.00000000 06:48:25
    0.00000302 808633.00000000 06:48:00
    0.00000302 677300.00000000 06:47:25
    0.00000302 3034284.00000000 06:47:19
    0.00000302 673910.00000000 06:47:10
    0.00000302 843022.00000000 06:46:25
    0.00000302 497604.00000000 06:46:15
    0.00000302 522030.00000000 06:45:50
    0.00000302 446659.00000000 06:45:25
    0.00000302 576813.00000000 06:44:45
    0.00000302 464523.00000000 06:44:25
    0.00000302 534393.00000000 06:44:00
    Desconectar
    AAA
    Ayuda
    🙂 🤣 😎 🤗 😛 😉 😜 🤑 🤔 😑 😴 😕 🙃 😲 😇 🙁 😢 😬 😟 😠 🕺 🏃 💪 ✌ 👌 👍 👎 👏 👋 🤝 🍺 🍻 🐋 🐟 🦈 🗽 🚄 ✈ 🛑 🚀 🏦 🌚 ⭐ 🌞 ⚡ 🏆 💰 💲 🔨 ❓ ❗ 💯 🔶 🏁
    ☺
    Iniciar sesión o Registrar y chatea
    24 Horas
    Variación
    -3.80%
    Volumen
    95,194,901,980
    Máx.
    0.00000319
    Mín.
    0.00000298
    7 Días
    Variación
    -4.70%
    Volumen
    901,067,412,028
    Máx.
    0.00000333
    Mín.
    0.00000290
    30 Días
    Variación
    +22.09%
    Volumen
    2,899,166,799,857
    Máx.
    0.00000388
    Mín.
    0.00000219
    DOGE, SHIB, PEPE, or Something Else: Which Meme Coin Can Make History in September? (3 AIs Weigh In)
    "DOGE remains the most likely to record the largest move in dollar terms and lead the entire sector," ChatGPT stated.
    cryptopotato.com
    Sept 3, 2026 00:41
    Pepe price rallies 25% as whale demand and futures interest surge
    Key takeaways Pepe has gained 25% this week, including a combined 22% advance over the previous two days. Seven whale transactions worth more than $1 million each occurred Thursday, the highest...
    coinjournal.net
    Aug 21, 2026 08:41
    PEPE Supply on Exchanges Just Took a Massive Hit – What’s Next?
    A drop in PEPE exchange balances has added to bullish expectations despite muted trader interest.
    cryptopotato.com
    Aug 6, 2026 20:02
    PEPE Exchange Outflows Hit Nearly 2-Year High as Whales Accumulate
    Pepe (PEPE) recorded its largest single-day exchange outflow since November 2024, with 4.54 trillion tokens leaving trading platforms, signaling that holders are moving supply away from immediate...
    beincrypto.com
    Aug 6, 2026 04:57
    Meme Coin Based on White House Shooter Conspiracy Rallies 320%
    $HENRY surged 300% after a 2023 Pepe tweet appeared to name the White House shooter, fueling a viral time-travel meme. The post Meme Coin Based on White House Shooter Conspiracy Rallies 320%...
    beincrypto.com
    Apr 27, 2026 16:11
    PEPE surges 4% as market sentiment improves, eyes Key resistance breakout
    Key takeaways Pepe extends gains on Wednesday, stretching its rally from the 50-day EMA. Derivatives data show heightened retail activity as risk-on sentiment returns to the market. Pepe (PEPE) is...
    coinjournal.net
    Apr 22, 2026 11:44
    Why The PEPE Price Could Stage A 55X Rally To Reach New $0.0001 ATH
    The PEPE price has now started to edge back into bullish conversations after the recent inflows into the crypto market. The last time PEPE’s weekly chart printed the kind of structure now...
    newsbtc.com
    Apr 21, 2026 15:30
    Pepe (PEPE) surges 9%, drawing interest from whales
    Key takeaways PEPE is up 9% in the last 24 hours, making it one of the best performers among the top 50 cryptocurrencies by market cap. The rally comes amid renewed interest from whales and retail...
    coinjournal.net
    Apr 16, 2026 07:40
    Murad Says SPX6900 (SPX) Is Primed for a Rally — Is He Right This Time?
    Crypto influencer Murad Mahmudov claims SPX6900 (SPX) is stabilizing at the same market cap level where Dogecoin (DOGE) and Pepe (PEPE) consolidated before their explosive rallies. The...
    beincrypto.com
    Apr 5, 2026 21:36
    The Shiba Inu Of This Cycle: Analyst Shares Why It Is Better To Buy PEPE Now
    In the bull market cycle of 2021-2022, the Shiba Inu meme coin made waves in a way that changed the face of meme coins forever. This came after Dogecoin’s initial 36,000% rally, and Shiba Inu...
    newsbtc.com
    Apr 4, 2026 07:30
    PEPE Explodes by 18% Amid Altcoin Rally, BTC Tapped $74K: Market Watch
    The frog-themed meme coin is today's biggest gainer, followed by TAO, DOT, and BONK.
    cryptopotato.com
    Mar 16, 2026 10:56
    Should PEPE traders brace for volatility as short squeeze potential builds?
    The memecoin market has seen its collective market capitalization drop by 48% over the past year, and 6.9% over the past month, according to CoinMarketCap. According to Glassnode, the memecoin...
    ambcrypto.com
    Mar 7, 2026 18:00
    Simplemente teclea el comando en el chat. Sustituir nick1 por el apodo real.
    • /ignore nick1 Ignorar un usuario del chat
    • /unignore nick1 Dejar de ignorar un usuario del chat
    • /ignorelist Mostrar usuarios del chat que has ignorado